Left ArrowRight Arrow

Hourly Observations for June 17, 2024

Temp ( °F °C ) Dew Point ( °F °C ) Humidity (%) Winds ( mph kmh ) Pressure ( in mb ) Visibility ( mi km ) Precip ( " mm )
12:53 am 00:53 Clear 88 31.1 57 13.9 35 35 SE 22 35 29.56 1001 10 16 0.00 0.00
1:53 am 01:53 Clear 86 30 56 13.3 36 36 SE 23 37 29.57 1001 10 16 0.00 0.00
2:53 am 02:53 Clear 85 29.4 57 13.9 39 39 SE 23 37 29.55 1001 10 16 0.00 0.00
3:53 am 03:53 Clear 84 28.9 56 13.3 38 38 SE 22 35 29.54 1000 10 16 0.00 0.00
4:53 am 04:53 Clear 83 28.3 56 13.3 40 40 SSE 24 39 29.54 1000 10 16 0.00 0.00
5:53 am 05:53 Clear 80 26.7 62 16.7 54 54 SSE 21 33 29.55 1001 10 16 0.00 0.00
6:53 am 06:53 Sunny 78 25.6 64 17.8 62 62 SSE 23 37 29.57 1002 10 16 0.00 0.00
7:53 am 07:53 Sunny 78 25.6 65 18.3 64 64 SE 21 33 29.58 1002 10 16 0.00 0.00
8:53 am 08:53 Sunny 80 26.7 65 18.3 60 60 SSE 25 41 29.59 1002 10 16 0.00 0.00
9:53 am 09:53 Sunny 83 28.3 65 18.3 55 55 SE 24 39 29.59 1002 10 16 0.00 0.00
10:53 am 10:53 Sunny 87 30.6 65 18.3 48 48 SSE 22 35 29.58 1002 10 16 0.00 0.00
11:53 am 11:53 Sunny 92 33.3 63 17.2 38 38 SSE 21 33 29.56 1001 10 16 0.00 0.00
12:53 pm 12:53 Sunny 96 35.6 61 16.1 31 31 SSE 16 26 29.54 1000 10 16 0.00 0.00
1:53 pm 13:53 Sunny 99 37.2 59 15 27 27 S 14 22 29.52 1000 10 16 0.00 0.00
2:53 pm 14:53 Sunny 105 40.6 56 13.3 20 20 S 14 22 29.48 998 10 16 0.00 0.00
3:53 pm 15:53 Sunny 105 40.6 58 14.4 22 22 SSE 20 31 29.45 997 10 16 0.00 0.00
4:53 pm 16:53 Sunny 106 41.1 58 14.4 21 21 ESE 18 30 29.43 997 10 16 0.00 0.00
5:53 pm 17:53 Sunny 105 40.6 58 14.4 22 22 ESE 30 48 29.41 996 10 16 0.00 0.00
6:53 pm 18:53 undefined 101 38.3 57 13.9 24 24 SE 30 48 29.41 996 10 16 0.00 0.00
8:53 pm 20:53 undefined 94 34.4 60 15.6 33 33 SE 29 46 29.44 997 10 16 0.00 0.00
9:53 pm 21:53 Clear 92 33.3 59 15 33 33 SE 21 33 29.44 997 10 16 0.00 0.00
10:53 pm 22:53 Clear 89 31.7 57 13.9 34 34 SSE 26 43 29.46 998 10 16 0.00 0.00
11:53 pm 23:53 Clear 86 30 59 15 40 40 SSE 10 17 29.49 999 10 16 0.00 0.00

Powered by Vaisala Xweather